MST,Max TemperatureF,Mean TemperatureF,Min TemperatureF,Max Dew PointF,MeanDew PointF,Min DewpointF,Max Humidity, Mean Humidity, Min Humidity, Max Sea Level PressureIn, Mean Sea Level PressureIn, Min Sea Level PressureIn, Max VisibilityMiles, Mean VisibilityMiles, Min VisibilityMiles, Max Wind SpeedMPH, Mean Wind SpeedMPH, Max Gust SpeedMPH,PrecipitationIn, CloudCover, Events, WindDirDegrees
2012-11-1,57,52,48,51,47,45,93,89,77,30.09,29.94,29.86,,,,4,0,,0.22,,,350
2012-11-2,55,50,46,50,47,44,93,89,77,30.19,30.14,30.10,,,,4,0,,0.10,,,90
2012-11-3,53,48,43,46,43,40,93,86,69,30.26,30.20,30.15,,,,4,1,,0.00,,,360
2012-11-4,59,52,46,51,47,44,93,88,64,30.43,30.36,30.28,,,,4,0,,0.00,,,350
2012-11-5,69,56,48,54,49,46,93,87,58,30.37,30.31,30.24,,,,4,0,,0.00,,,270
2012-11-6,63,55,48,50,47,45,93,84,58,30.26,30.12,29.98,,,,6,1,,0.00,,,346
2012-11-7,48,46,43,46,43,40,93,90,86,30.13,30.05,29.94,,,,5,0,,0.30,,,350
2012-11-8,42,40,37,40,37,34,93,90,86,30.00,29.81,29.71,,,,5,0,,0.17,,,150
2012-11-9,41,37,35,36,34,32,93,88,77,29.91,29.86,29.80,,,,7,0,,0.05,,,80
2012-11-10,36,33,30,32,30,26,92,86,73,30.27,30.08,29.92,,,,6,1,,0.06,,,344
2012-11-11,30,30,30,28,28,28,89,89,89,30.42,30.35,30.24,,,,4,1,,0.00,,,340
2012-11-12,,,,,,,,,,30.42,30.35,30.31,,,,7,1,,0.17,,,350
2012-11-13,,,,,,,,,,30.37,30.31,30.24,,,,5,1,,0.05,,,334
2012-11-14,,,,,,,,,,30.37,30.29,30.23,,,,4,1,,0.32,,,347
2012-11-15,52,44,37,40,37,35,93,83,57,30.37,30.23,30.08,,,,5,2,,0.00,,,352
2012-11-16,48,41,37,40,36,34,93,88,71,30.12,30.08,30.02,,,,5,1,,0.00,,,337
2012-11-17,46,42,37,41,38,34,93,88,73,30.07,29.87,29.69,,,,6,2,,0.00,,,342
2012-11-18,48,40,35,41,37,33,97,89,79,30.08,30.02,29.71,,,,4,1,,0.51,,,346
2012-11-19,50,42,37,44,39,34,93,87,69,30.08,29.99,29.88,,,,7,1,,0.05,,,340
2012-11-20,50,47,44,46,44,42,96,92,86,29.89,29.84,29.78,,,,5,1,,0.12,,,343
2012-11-21,54,44,37,45,41,36,96,91,83,30.26,29.94,29.71,,,,5,1,,0.44,,,345
2012-11-22,48,40,32,38,35,30,93,87,63,30.57,30.49,30.28,,,,5,0,,0.00,,,180
2012-11-23,43,36,30,34,32,29,92,85,67,30.52,30.41,30.26,,,,12,6,,0.00,,,337
2012-11-24,44,40,37,41,38,34,93,91,86,30.28,30.22,30.15,,,,5,2,,0.37,,,334
2012-11-25,45,39,35,39,36,31,97,90,82,30.43,30.29,30.14,,,,4,0,,0.05,,,220
2012-11-26,42,34,28,31,28,26,96,85,62,30.43,30.37,30.29,,,,5,1,,0.00,,,340
2012-11-27,39,33,27,30,27,23,92,85,67,30.42,30.33,30.26,,,,6,3,,0.00,,,335
2012-11-28,37,32,28,33,30,26,92,88,82,30.25,30.09,29.97,,,,8,4,,0.07,,,332
2012-11-29,43,38,35,39,36,33,96,92,85,30.04,29.96,29.82,,,,5,2,,0.14,,,349
2012-11-30,45,42,39,43,40,38,96,93,89,29.79,29.73,29.69,,,,6,1,,0.27,,,318